| time (UTC) | temp C | wind direction | speed KPH | gust KPH | rain 1hr cm | rain 24hr cm | rain mn cm | humidity % | barometer mb |
| 20260506134514 | 7 | 355 | 1.6 | 16.1 | 0.00 | 0.03 | 0.00 | 65 | 1012.3 |
| 20260506133012 | 7 | 61 | 0.0 | 9.7 | 0.00 | 0.03 | 0.00 | 66 | 1012.2 |
| 20260506131509 | 6 | 22 | 3.2 | 16.1 | 0.00 | 0.03 | 0.00 | 67 | 1012.1 |
| 20260506130005 | 6 | 355 | 4.8 | 16.1 | 0.00 | 0.03 | 0.00 | 68 | 1011.7 |
| 20260506124559 | 6 | 334 | 0.0 | 12.9 | 0.00 | 0.03 | 0.00 | 71 | 1011.7 |
| 20260506123100 | 5 | 318 | 1.6 | 14.5 | 0.00 | 0.03 | 0.00 | 71 | 1011.7 |
| 20260506121556 | 6 | 5 | 4.8 | 19.3 | 0.00 | 0.03 | 0.00 | 72 | 1011.6 |
| 20260506120050 | 6 | 347 | 4.8 | 12.9 | 0.00 | 0.03 | 0.00 | 74 | 1011.2 |
| 20260506114546 | 6 | 327 | 1.6 | 8.0 | 0.00 | 0.03 | 0.00 | 73 | 1011.1 |
| 20260506113050 | 6 | 334 | 0.0 | 8.0 | 0.00 | 0.03 | 0.00 | 73 | 1010.9 |
| 20260506111539 | 6 | 306 | 0.0 | 11.3 | 0.00 | 0.03 | 0.00 | 71 | 1010.6 |
| 20260506110042 | 6 | 299 | 0.0 | 16.1 | 0.00 | 0.03 | 0.00 | 70 | 1010.3 |
| 20260506104533 | 6 | 315 | 4.8 | 14.5 | 0.00 | 0.03 | 0.00 | 68 | 1009.9 |
| 20260506103030 | 6 | 327 | 0.0 | 6.4 | 0.00 | 0.03 | 0.00 | 68 | 1009.9 |
| 20260506101532 | 6 | 329 | 1.6 | 11.3 | 0.00 | 0.03 | 0.00 | 68 | 1009.6 |
| 20260506100025 | 7 | 299 | 1.6 | 11.3 | 0.00 | 0.03 | 0.00 | 68 | 1009.3 |
| 20260506094526 | 7 | 333 | 0.0 | 8.0 | 0.00 | 0.03 | 0.00 | 69 | 1009.3 |
| 20260506093030 | 7 | 342 | 1.6 | 8.0 | 0.00 | 0.03 | 0.00 | 69 | 1009.5 |
| 20260506091519 | 7 | 332 | 0.0 | 12.9 | 0.00 | 0.03 | 0.00 | 69 | 1009.1 |
| 20260506090016 | 7 | 346 | 3.2 | 17.7 | 0.00 | 0.03 | 0.00 | 71 | 1009.1 |
| 20260506084512 | 8 | 360 | 1.6 | 12.9 | 0.00 | 0.03 | 0.00 | 73 | 1009.0 |
| 20260506083009 | 8 | 351 | 0.0 | 0.0 | 0.00 | 0.03 | 0.00 | 72 | 1008.9 |
| 20260506081512 | 8 | 333 | 1.6 | 12.9 | 0.00 | 0.03 | 0.00 | 70 | 1009.0 |
| 20260506073056 | 9 | 340 | 6.4 | 11.3 | 0.00 | 0.03 | 0.00 | 59 | 1008.5 |
| 20260506071553 | 10 | 337 | 0.0 | 8.0 | 0.00 | 0.03 | 0.00 | 59 | 1008.7 |
| 20260506061549 | 10 | 360 | 0.0 | 3.2 | 0.00 | 0.03 | 0.00 | 57 | 1008.6 |
| 20260506044548 | 10 | 248 | 0.0 | 3.2 | 0.00 | 0.03 | 0.00 | 57 | 1008.4 |
| 20260506043038 | 10 | 360 | 0.0 | 0.0 | 0.00 | 0.03 | 0.00 | 57 | 1008.2 |
| 20260506041539 | 10 | 267 | 0.0 | 0.0 | 0.00 | 0.03 | 0.00 | 57 | 1008.3 |
| 20260506040035 | 10 | 360 | 0.0 | 0.0 | 0.00 | 0.03 | 0.00 | 55 | 1008.5 |
| 20260506034536 | 10 | 213 | 0.0 | 0.0 | 0.00 | 0.03 | 0.03 | 54 | 1008.5 |
| 20260506033032 | 10 | 213 | 0.0 | 0.0 | 0.00 | 0.03 | 0.03 | 54 | 1008.5 |
| 20260506031542 | 11 | 207 | 0.0 | 0.0 | 0.00 | 0.03 | 0.03 | 53 | 1008.5 |
| 20260506030032 | 11 | 205 | 0.0 | 0.0 | 0.00 | 0.03 | 0.03 | 54 | 1008.5 |
| 20260506024532 | 11 | 194 | 0.0 | 0.0 | 0.00 | 0.03 | 0.03 | 52 | 1008.6 |
| 20260506023027 | 11 | 194 | 0.0 | 0.0 | 0.00 | 0.03 | 0.03 | 50 | 1008.6 |
| 20260506021624 | 11 | 233 | 0.0 | 11.3 | 0.00 | 0.03 | 0.03 | 53 | 1008.7 |
| 20260506020022 | 11 | 175 | 0.0 | 0.0 | 0.00 | 0.03 | 0.03 | 54 | 1008.2 |
| 20260506014520 | 11 | 196 | 0.0 | 0.0 | 0.00 | 0.03 | 0.03 | 61 | 1008.1 |
| 20260506013022 | 11 | 194 | 0.0 | 0.0 | 0.00 | 0.03 | 0.03 | 62 | 1007.9 |
| 20260506011519 | 11 | 194 | 0.0 | 0.0 | 0.00 | 0.03 | 0.03 | 58 | 1007.8 |
| 20260506010043 | 12 | 194 | 0.0 | 0.0 | 0.00 | 0.03 | 0.03 | 59 | 1007.9 |
| 20260506004514 | 12 | 194 | 0.0 | 0.0 | 0.00 | 0.03 | 0.03 | 60 | 1007.8 |
| 20260506003013 | 12 | 223 | 0.0 | 0.0 | 0.00 | 0.03 | 0.03 | 60 | 1007.8 |
| 20260506001510 | 12 | 200 | 0.0 | 1.6 | 0.00 | 0.03 | 0.03 | 63 | 1007.5 |
| 20260506000013 | 12 | 191 | 0.0 | 8.0 | 0.00 | 0.03 | 0.03 | 62 | 1007.3 |
| 20260505234507 | 12 | 220 | 0.0 | 0.0 | 0.00 | 0.03 | 0.03 | 61 | 1007.1 |
| 20260505233008 | 12 | 217 | 0.0 | 0.0 | 0.00 | 0.03 | 0.03 | 58 | 1007.0 |
| 20260505231509 | 12 | 360 | 1.6 | 8.0 | 0.00 | 0.03 | 0.03 | 59 | 1007.0 |
| 20260505230004 | 13 | 360 | 0.0 | 0.0 | 0.00 | 0.03 | 0.03 | 61 | 1007.1 |
| 20260505224503 | 13 | 228 | 0.0 | 8.0 | 0.00 | 0.03 | 0.03 | 63 | 1007.2 |
| 20260505223001 | 12 | 360 | 0.0 | 9.7 | 0.00 | 0.03 | 0.03 | 66 | 1007.2 |
| 20260505221557 | 12 | 206 | 0.0 | 0.0 | 0.00 | 0.03 | 0.03 | 74 | 1007.2 |
| 20260505220054 | 12 | 203 | 1.6 | 8.0 | 0.00 | 0.03 | 0.03 | 74 | 1007.5 |
| 20260505214609 | 12 | 205 | 0.0 | 9.7 | 0.00 | 0.03 | 0.03 | 76 | 1007.2 |
| 20260505213050 | 12 | 191 | 0.0 | 8.0 | 0.00 | 0.03 | 0.03 | 77 | 1007.1 |
| 20260505211550 | 12 | 199 | 0.0 | 9.7 | 0.00 | 0.03 | 0.03 | 77 | 1007.2 |
| 20260505210049 | 12 | 238 | 0.0 | 12.9 | 0.00 | 0.03 | 0.03 | 77 | 1007.3 |
| 20260505204547 | 12 | 163 | 0.0 | 8.0 | 0.00 | 0.03 | 0.03 | 78 | 1007.2 |
| 20260505203048 | 12 | 206 | 0.0 | 1.6 | 0.00 | 0.03 | 0.03 | 78 | 1007.2 |
| 20260505201553 | 12 | 360 | 0.0 | 16.1 | 0.00 | 0.03 | 0.03 | 79 | 1007.3 |
| 20260505200047 | 12 | 189 | 6.4 | 17.7 | 0.00 | 0.03 | 0.03 | 80 | 1007.5 |
| 20260505194545 | 11 | 200 | 0.0 | 11.3 | 0.00 | 0.03 | 0.03 | 81 | 1007.5 |
| 20260505193046 | 11 | 207 | 1.6 | 14.5 | 0.00 | 0.03 | 0.03 | 81 | 1007.6 |
| 20260505191600 | 11 | 169 | 1.6 | 11.3 | 0.00 | 0.03 | 0.03 | 81 | 1007.6 |
| 20260505190050 | 11 | 188 | 3.2 | 12.9 | 0.00 | 0.03 | 0.03 | 81 | 1007.4 |
| 20260505184545 | 12 | 167 | 0.0 | 12.9 | 0.00 | 0.03 | 0.03 | 81 | 1007.2 |
| 20260505183104 | 12 | 210 | 3.2 | 16.1 | 0.00 | 0.03 | 0.03 | 82 | 1006.9 |
| 20260505181539 | 12 | 231 | 0.0 | 11.3 | 0.00 | 0.03 | 0.03 | 81 | 1006.8 |
| 20260505180037 | 12 | 167 | 1.6 | 11.3 | 0.03 | 0.03 | 0.03 | 80 | 1006.7 |
| 20260505174537 | 12 | 163 | 0.0 | 16.1 | 0.03 | 0.03 | 0.03 | 80 | 1006.7 |
| 20260505173041 | 12 | 153 | 0.0 | 16.1 | 0.03 | 0.03 | 0.03 | 82 | 1006.3 |
| 20260505171542 | 11 | 360 | 0.0 | 9.7 | 0.03 | 0.03 | 0.03 | 85 | 1006.6 |
| 20260505170026 | 11 | 202 | 4.8 | 12.9 | 0.00 | 0.00 | 0.00 | 82 | 1006.7 |
| 20260505164523 | -17 | 0.0 | 0.0 | 0.00 | 0.00 | 0.00 | 1006.8 | ||
| 20260505163019 | -17 | 0.0 | 0.0 | 0.00 | 0.00 | 0.00 | 1006.8 | ||
| 20260505161515 | -17 | 0.0 | 0.0 | 0.00 | 0.00 | 0.00 | 1006.8 | ||
| 20260505153001 | -17 | 0.0 | 0.0 | 0.00 | 0.00 | 0.00 | 1006.1 | ||
| 20260505151500 | -17 | 0.0 | 0.0 | 0.00 | 0.00 | 0.00 | 1005.7 |